FW8019 Weather Reports


Display with metric or nautical units.
time (UTC)temp
F
wind
direction
speed
MPH
gust
MPH
rain 1hr
in
rain 24hr
in
rain mn
in
humidity
%
barometer
mb
20260507003812 73 165 0.0 0.0 0.00 0.00 0.00 93 1014.0
20260507003302 73 158 0.0 0.0 0.00 0.00 0.00 92 1014.1
20260507002757 73 121 1.0 1.0 0.00 0.00 0.00 92 1014.0
20260507002254 73 175 0.0 0.0 0.00 0.00 0.00 92 1014.0
20260507001751 73 190 1.0 2.0 0.00 0.00 0.00 91 1014.0
20260507001248 74 187 1.0 1.0 0.00 0.00 0.00 91 1013.8
20260507000744 74 180 0.0 1.0 0.00 0.00 0.00 90 1013.9
20260507000240 74 182 1.0 1.0 0.00 0.00 0.00 90 1013.9
20260506235737 74 167 0.0 0.0 0.00 0.00 0.00 89 1014.3
20260506235232 74 182 0.0 1.0 0.00 0.00 0.00 89 1014.3
20260506234730 74 171 0.0 0.0 0.00 0.00 0.00 89 1014.2
20260506234227 74 174 1.0 1.0 0.00 0.00 0.00 88 1014.2
20260506233724 75 177 0.0 0.0 0.00 0.00 0.00 87 1014.1
20260506233221 75 166 0.0 0.0 0.00 0.00 0.00 87 1014.0
20260506232717 75 164 0.0 0.0 0.00 0.00 0.00 86 1013.9
20260506232212 75 175 1.0 1.0 0.00 0.00 0.00 85 1014.0
20260506231710 75 172 0.0 1.0 0.00 0.00 0.00 85 1014.1
20260506231208 75 169 0.0 0.0 0.00 0.00 0.00 84 1014.3
20260506230704 75 171 0.0 0.0 0.00 0.00 0.00 84 1014.4
20260506230201 76 177 1.0 1.0 0.00 0.00 0.00 84 1014.1
20260506225658 76 161 0.0 0.0 0.00 0.00 0.00 85 1014.0
20260506225155 76 163 0.0 0.0 0.00 0.00 0.00 85 1014.0
20260506224651 76 162 0.0 1.0 0.00 0.00 0.00 84 1013.9
20260506224148 76 175 0.0 0.0 0.00 0.00 0.00 84 1013.9
20260506223645 76 179 0.0 0.0 0.00 0.00 0.00 83 1013.8
20260506223140 77 162 0.0 0.0 0.00 0.00 0.00 82 1013.8
20260506222637 77 177 1.0 1.0 0.00 0.00 0.00 81 1013.8
20260506222133 78 174 1.0 1.0 0.00 0.00 0.00 81 1014.0
20260506221631 78 163 0.0 1.0 0.00 0.00 0.00 80 1013.8
20260506221129 78 177 1.0 1.0 0.00 0.00 0.00 80 1013.6
20260506220626 80 197 1.0 2.0 0.00 0.00 0.00 77 1013.6
20260506220121 80 189 2.0 2.0 0.00 0.00 0.00 76 1013.5
20260506215618 80 182 0.0 1.0 0.00 0.00 0.00 77 1013.7
20260506215113 80 192 1.0 1.0 0.00 0.00 0.00 77 1013.6
20260506214610 80 184 0.0 1.0 0.00 0.00 0.00 75 1013.9
20260506214108 80 178 2.0 3.0 0.00 0.00 0.00 76 1013.9
20260506213606 80 177 1.0 1.0 0.00 0.00 0.00 76 1013.8
20260506213103 80 181 1.0 1.0 0.00 0.00 0.00 76 1014.0
20260506212600 80 177 0.0 1.0 0.00 0.00 0.00 78 1013.9
20260506212054 80 188 1.0 2.0 0.00 0.00 0.00 77 1014.0
20260506211551 79 186 0.0 0.0 0.00 0.00 0.00 78 1014.0
20260506211048 79 192 1.0 1.0 0.00 0.00 0.00 77 1014.0
20260506210544 79 205 2.0 2.0 0.00 0.00 0.00 77 1014.0
20260506210041 80 208 2.0 3.0 0.00 0.00 0.00 76 1014.0
20260506205538 79 170 1.0 1.0 0.00 0.00 0.00 78 1014.0
20260506205033 79 212 1.0 1.0 0.00 0.00 0.00 77 1013.7
20260506204531 80 153 1.0 1.0 0.00 0.00 0.00 76 1014.0
20260506204028 80 202 1.0 2.0 0.00 0.00 0.00 75 1013.9
20260506203526 80 179 0.0 0.0 0.00 0.00 0.00 75 1014.3
20260506203022 81 207 2.0 2.0 0.00 0.00 0.00 73 1014.4
20260506202520 81 167 1.0 1.0 0.00 0.00 0.00 75 1014.4
20260506202016 81 186 1.0 1.0 0.00 0.00 0.00 75 1014.3
20260506201514 80 203 1.0 2.0 0.00 0.00 0.00 75 1014.4
20260506201010 80 195 0.0 1.0 0.00 0.00 0.00 76 1014.3
20260506200506 79 188 1.0 2.0 0.00 0.00 0.00 77 1014.2
20260506200003 79 200 4.0 5.0 0.00 0.00 0.00 75 1014.3
20260506195500 80 130 0.0 0.0 0.00 0.00 0.00 76 1014.6
20260506194955 80 192 2.0 3.0 0.00 0.00 0.00 76 1014.5
20260506194453 80 186 1.0 1.0 0.00 0.00 0.00 76 1014.6
20260506193945 80 182 1.0 1.0 0.00 0.00 0.00 76 1014.7
20260506193442 80 179 0.0 1.0 0.00 0.00 0.00 76 1014.4
20260506192938 80 191 1.0 2.0 0.00 0.00 0.00 76 1014.6
20260506192435 80 198 2.0 2.0 0.00 0.00 0.00 75 1014.8
20260506191932 80 189 1.0 2.0 0.00 0.00 0.00 75 1015.0
20260506191428 80 198 1.0 2.0 0.00 0.00 0.00 74 1014.8
20260506190925 80 192 0.0 0.0 0.00 0.00 0.00 75 1015.0
20260506190422 80 184 1.0 2.0 0.00 0.00 0.00 74 1015.1
20260506185919 80 187 1.0 2.0 0.00 0.00 0.00 73 1015.3
20260506185416 81 196 1.0 1.0 0.00 0.00 0.00 71 1015.4
20260506184913 80 198 1.0 1.0 0.00 0.00 0.00 74 1015.3
20260506184410 82 201 1.0 1.0 0.00 0.00 0.00 71 1015.3
20260506183907 81 183 0.0 1.0 0.00 0.00 0.00 71 1015.6
20260506183402 81 166 1.0 1.0 0.00 0.00 0.00 72 1015.6
20260506182900 80 190 1.0 2.0 0.00 0.00 0.00 74 1015.7
20260506182357 80 198 0.0 1.0 0.00 0.00 0.00 75 1016.0
20260506181854 80 214 2.0 3.0 0.00 0.00 0.00 74 1015.4
20260506181352 80 183 1.0 1.0 0.00 0.00 0.00 75 1015.7
20260506180849 80 190 0.0 1.0 0.00 0.00 0.00 75 1015.7
20260506180345 80 193 0.0 1.0 0.00 0.00 0.00 77 1015.7
20260506175842 80 196 1.0 2.0 0.00 0.00 0.00 74 1015.8
20260506175339 80 185 2.0 2.0 0.00 0.00 0.00 74 1015.9
20260506174835 80 188 2.0 2.0 0.00 0.00 0.00 76 1015.9
20260506174333 79 199 1.0 2.0 0.00 0.00 0.00 76 1016.1
20260506173830 78 208 3.0 5.0 0.00 0.00 0.00 76 1016.3
20260506173327 79 208 3.0 3.0 0.00 0.00 0.00 75 1016.2
20260506172824 79 51 3.0 5.0 0.00 0.00 0.00 76 1016.1
20260506172321 80 195 1.0 2.0 0.00 0.00 0.00 74 1016.1
20260506171818 80 209 2.0 3.0 0.00 0.00 0.00 73 1016.1
20260506171315 80 114 1.0 2.0 0.00 0.00 0.00 73 1016.3
20260506170813 81 180 0.0 1.0 0.00 0.00 0.00 72 1016.3
20260506170308 81 212 2.0 2.0 0.00 0.00 0.00 71 1016.1
20260506165808 80 196 1.0 2.0 0.00 0.00 0.00 71 1016.4
20260506165306 81 200 1.0 1.0 0.00 0.00 0.00 72 1016.4
20260506164801 80 197 2.0 2.0 0.00 0.00 0.00 73 1016.5
20260506164258 80 181 1.0 1.0 0.00 0.00 0.00 74 1016.4
20260506163755 80 177 1.0 1.0 0.00 0.00 0.00 73 1016.2
20260506163250 80 180 0.0 1.0 0.00 0.00 0.00 73 1016.1
20260506162746 80 209 3.0 3.0 0.00 0.00 0.00 72 1016.4
20260506162244 80 195 1.0 2.0 0.00 0.00 0.00 71 1016.3
20260506161741 79 173 0.0 1.0 0.00 0.00 0.00 72 1016.5
20260506161238 79 195 3.0 5.0 0.00 0.00 0.00 71 1016.6
20260506160736 79 177 1.0 2.0 0.00 0.00 0.00 71 1016.8
20260506160232 78 171 1.0 1.0 0.00 0.00 0.00 72 1016.7
20260506155731 78 188 2.0 2.0 0.00 0.00 0.00 71 1016.6
20260506155227 79 199 2.0 3.0 0.00 0.00 0.00 71 1016.8
20260506153335 78 170 0.0 0.0 0.00 0.00 0.00 70 1016.5
20260506152832 79 181 3.0 3.0 0.00 0.00 0.00 69 1016.9
20260506152329 78 170 1.0 2.0 0.00 0.00 0.00 71 1016.6
20260506151828 78 179 3.0 5.0 0.00 0.00 0.00 70 1016.8
20260506151324 78 150 2.0 3.0 0.00 0.00 0.00 71 1016.8
20260506150821 78 164 0.0 1.0 0.00 0.00 0.00 73 1016.7
20260506150318 77 190 2.0 2.0 0.00 0.00 0.00 73 1016.7
20260506145815 77 177 1.0 1.0 0.00 0.00 0.00 77 1016.8
20260506145311 77 175 0.0 0.0 0.00 0.00 0.00 77 1016.4
20260506144809 77 192 2.0 3.0 0.00 0.00 0.00 79 1016.5
20260506144305 76 180 0.0 0.0 0.00 0.00 0.00 79 1016.5
20260506143803 76 164 1.0 1.0 0.00 0.00 0.00 78 1016.4
20260506143300 76 176 0.0 1.0 0.00 0.00 0.00 77 1016.3
20260506142758 76 179 0.0 1.0 0.00 0.00 0.00 77 1016.3
20260506142256 76 170 0.0 0.0 0.00 0.00 0.00 78 1016.4
20260506141754 75 139 0.0 0.0 0.00 0.00 0.00 78 1016.2
20260506141252 76 171 0.0 0.0 0.00 0.00 0.00 79 1016.4
20260506140749 75 179 1.0 1.0 0.00 0.00 0.00 81 1016.6
20260506140246 75 175 0.0 1.0 0.00 0.00 0.00 83 1016.5
20260506135743 74 206 2.0 2.0 0.00 0.00 0.00 83 1016.2
20260506135239 74 168 0.0 0.0 0.00 0.00 0.00 83 1016.1
20260506134736 74 157 0.0 0.0 0.00 0.00 0.00 84 1016.2
20260506134233 74 166 1.0 2.0 0.00 0.00 0.00 84 1016.3
20260506133730 74 179 0.0 0.0 0.00 0.00 0.00 85 1016.0
20260506133226 73 172 0.0 0.0 0.00 0.00 0.00 86 1016.2
20260506132724 73 178 0.0 0.0 0.00 0.00 0.00 86 1016.4
20260506132221 73 151 0.0 1.0 0.00 0.00 0.00 87 1016.3
20260506131719 72 168 0.0 0.0 0.00 0.00 0.00 87 1016.1
20260506131214 72 147 0.0 0.0 0.00 0.00 0.00 87 1016.2
20260506130711 72 183 0.0 1.0 0.00 0.00 0.00 88 1015.9
20260506130208 72 181 1.0 1.0 0.00 0.00 0.00 88 1016.1
20260506125706 72 165 0.0 0.0 0.00 0.00 0.00 88 1016.2
20260506125204 71 165 0.0 0.0 0.00 0.00 0.00 88 1016.0
20260506124702 71 171 0.0 0.0 0.00 0.00 0.00 89 1015.9
20260506124200 71 180 0.0 1.0 0.00 0.00 0.00 89 1015.9
20260506123657 71 169 0.0 0.0 0.00 0.00 0.00 90 1015.9
20260506123155 71 169 0.0 0.0 0.00 0.00 0.00 90 1015.7
20260506122652 70 167 0.0 0.0 0.00 0.00 0.00 91 1016.2
20260506122149 70 155 0.0 0.0 0.00 0.00 0.00 92 1015.9
20260506121647 70 157 0.0 0.0 0.00 0.00 0.00 92 1016.0
20260506121143 69 147 0.0 0.0 0.00 0.00 0.00 93 1016.0
20260506120641 69 182 1.0 1.0 0.00 0.00 0.00 94 1015.7
20260506120138 69 164 0.0 0.0 0.00 0.00 0.00 96 1015.7
20260506115637 68 172 0.0 0.0 0.00 0.00 0.00 97 1015.8
20260506115134 68 184 0.0 0.0 0.00 0.00 0.00 98 1015.6
20260506114631 67 184 0.0 0.0 0.00 0.00 0.00 98 1015.6
20260506114129 67 184 0.0 0.0 0.00 0.00 0.00 98 1015.6
20260506113628 66 184 0.0 0.0 0.00 0.00 0.00 98 1015.5
20260506113124 66 184 0.0 0.0 0.00 0.00 0.00 98 1015.6
20260506112620 65 184 0.0 0.0 0.00 0.00 0.00 98 1015.4
20260506112118 65 183 0.0 0.0 0.00 0.00 0.00 98 1015.4
20260506111616 65 183 0.0 0.0 0.00 0.00 0.00 98 1015.3
20260506111113 64 183 0.0 0.0 0.00 0.00 0.00 98 1015.5
20260506110610 64 183 0.0 0.0 0.00 0.00 0.00 98 1015.4
20260506110108 64 183 0.0 0.0 0.00 0.00 0.00 98 1015.4
20260506105604 64 183 0.0 0.0 0.00 0.00 0.00 98 1015.2
20260506105101 64 182 0.0 0.0 0.00 0.00 0.00 98 1015.4
20260506104559 64 182 0.0 0.0 0.00 0.00 0.00 98 1015.2
20260506104057 64 182 0.0 0.0 0.00 0.00 0.00 98 1015.1
20260506103554 64 182 0.0 0.0 0.00 0.00 0.00 98 1015.1
20260506103050 64 182 0.0 0.0 0.00 0.00 0.00 98 1015.2
20260506102549 64 182 0.0 0.0 0.00 0.00 0.00 98 1015.3
20260506102046 63 182 0.0 0.0 0.00 0.00 0.00 97 1014.9
20260506101542 63 182 0.0 0.0 0.00 0.00 0.00 97 1015.1
20260506101039 64 182 0.0 0.0 0.00 0.00 0.00 97 1015.3
20260506100538 64 182 0.0 0.0 0.00 0.00 0.00 97 1015.1
20260506100036 63 182 0.0 0.0 0.00 0.00 0.00 97 1014.9
20260506095534 64 182 0.0 0.0 0.00 0.00 0.00 97 1015.1
20260506095030 64 182 0.0 0.0 0.00 0.00 0.00 97 1015.1
20260506094528 64 182 0.0 0.0 0.00 0.00 0.00 96 1014.9
20260506094026 64 182 0.0 0.0 0.00 0.00 0.00 96 1015.0
20260506093524 64 182 0.0 0.0 0.00 0.00 0.00 96 1015.0
20260506093021 64 182 0.0 0.0 0.00 0.00 0.00 96 1015.2
20260506092519 64 182 0.0 0.0 0.00 0.00 0.00 96 1014.9
20260506092015 64 182 0.0 0.0 0.00 0.00 0.00 96 1015.1
20260506091514 64 182 0.0 0.0 0.00 0.00 0.00 95 1015.2
20260506091010 64 183 0.0 0.0 0.00 0.00 0.00 95 1015.1
20260506090508 65 183 0.0 0.0 0.00 0.00 0.00 95 1015.3
20260506090004 65 183 0.0 0.0 0.00 0.00 0.00 95 1015.3
20260506085502 65 183 0.0 0.0 0.00 0.00 0.00 95 1015.3
20260506084958 65 183 0.0 0.0 0.00 0.00 0.00 94 1015.2
20260506084454 65 183 0.0 0.0 0.00 0.00 0.00 94 1015.2
20260506083950 66 183 0.0 0.0 0.00 0.00 0.00 94 1015.3
20260506083448 66 183 0.0 0.0 0.00 0.00 0.00 94 1015.3
20260506082945 66 183 0.0 0.0 0.00 0.00 0.00 94 1015.2
20260506082442 66 183 0.0 0.0 0.00 0.00 0.00 94 1015.1
20260506081938 66 183 0.0 0.0 0.00 0.00 0.00 94 1015.2
20260506081436 66 183 0.0 0.0 0.00 0.00 0.00 94 1014.9
20260506080933 66 183 0.0 0.0 0.00 0.00 0.00 94 1015.2
20260506080430 66 183 0.0 0.0 0.00 0.00 0.00 94 1015.4
20260506073414 66 183 0.0 0.0 0.00 0.00 0.00 94 1014.8
20260506072912 66 183 0.0 0.0 0.00 0.00 0.00 94 1015.1
20260506072409 66 183 0.0 0.0 0.00 0.00 0.00 94 1014.9
20260506071906 66 183 0.0 0.0 0.00 0.00 0.00 93 1014.8
20260506071404 66 183 0.0 0.0 0.00 0.00 0.00 93 1015.0
20260506070901 66 183 0.0 0.0 0.00 0.00 0.00 93 1014.9
20260506070357 66 183 0.0 0.0 0.00 0.00 0.00 93 1015.1
20260506062335 66 183 0.0 0.0 0.00 0.00 0.00 91 1015.2
20260506061830 67 183 0.0 0.0 0.00 0.00 0.00 90 1015.3
20260506061328 67 184 0.0 0.0 0.00 0.00 0.00 90 1015.3
20260506060826 67 184 0.0 0.0 0.00 0.00 0.00 90 1015.3
20260506060323 67 184 0.0 0.0 0.00 0.00 0.00 89 1015.4
20260506051255 66 184 0.0 0.0 0.00 0.00 0.00 87 1015.8
20260506050753 67 184 0.0 0.0 0.00 0.00 0.00 87 1015.9
20260506050250 67 184 0.0 0.0 0.00 0.00 0.00 86 1016.1
20260506044741 67 184 0.0 0.0 0.00 0.00 0.00 86 1016.2
20260506044238 67 184 0.0 0.0 0.00 0.00 0.00 85 1016.3
20260506043735 67 184 0.0 0.0 0.00 0.00 0.00 85 1016.3
20260506043233 67 184 0.0 0.0 0.00 0.00 0.00 84 1016.2
20260506042731 68 184 0.0 0.0 0.00 0.00 0.00 83 1016.3
20260506042230 68 184 0.0 0.0 0.00 0.00 0.00 83 1016.3
20260506041728 68 184 0.0 0.0 0.00 0.00 0.00 83 1016.1
20260506041224 68 184 0.0 0.0 0.00 0.00 0.00 82 1016.2
20260506040722 68 184 0.0 0.0 0.00 0.00 0.00 82 1016.3
20260506040219 68 184 0.0 0.0 0.00 0.00 0.00 82 1016.0
20260506035715 68 184 0.0 0.0 0.00 0.00 0.00 82 1016.4
20260506035212 68 184 0.0 0.0 0.00 0.00 0.00 82 1016.1
20260506034709 68 184 0.0 0.0 0.00 0.00 0.00 82 1016.1
20260506034207 68 184 0.0 0.0 0.00 0.00 0.00 82 1016.0
20260506033704 68 184 0.0 0.0 0.00 0.00 0.00 82 1015.9
20260506033200 68 184 0.0 0.0 0.00 0.00 0.00 81 1016.0
20260506032657 68 184 0.0 0.0 0.00 0.00 0.00 80 1016.1
20260506032154 68 183 0.0 0.0 0.00 0.00 0.00 80 1016.1
20260506031651 68 183 0.0 0.0 0.00 0.00 0.00 80 1016.2
20260506031148 68 183 1.0 1.0 0.00 0.00 0.00 79 1016.1
20260506030647 68 183 0.0 0.0 0.00 0.00 0.00 79 1016.1
20260506030143 68 183 0.0 0.0 0.00 0.00 0.00 79 1016.0
20260506025640 68 183 0.0 0.0 0.00 0.00 0.00 79 1016.3
20260506025136 68 183 0.0 0.0 0.00 0.00 0.00 79 1016.3
20260506024634 68 183 0.0 0.0 0.00 0.00 0.00 79 1016.4
20260506024130 68 183 0.0 0.0 0.00 0.00 0.00 78 1016.6
20260506023626 68 183 0.0 0.0 0.00 0.00 0.00 78 1016.6
20260506023124 68 183 0.0 0.0 0.00 0.00 0.00 79 1016.5
20260506022621 68 183 0.0 0.0 0.00 0.00 0.00 78 1016.7
20260506022118 68 183 0.0 0.0 0.00 0.00 0.00 77 1016.8
20260506021616 68 183 0.0 1.0 0.00 0.00 0.00 78 1016.6
20260506021113 68 183 0.0 0.0 0.00 0.00 0.00 78 1016.4
20260506020610 67 183 0.0 0.0 0.00 0.00 0.00 79 1016.6
20260506020108 67 182 0.0 0.0 0.00 0.00 0.00 78 1016.4
20260506015605 68 182 0.0 0.0 0.00 0.00 0.00 78 1016.4
20260506015102 68 182 1.0 1.0 0.00 0.00 0.00 77 1016.2
20260506014600 68 181 0.0 1.0 0.00 0.00 0.00 77 1016.0
20260506014055 68 181 0.0 0.0 0.00 0.00 0.00 76 1016.1
20260506013553 68 181 0.0 0.0 0.00 0.00 0.00 76 1016.1
20260506013050 68 181 0.0 0.0 0.00 0.00 0.00 75 1016.1
20260506012546 68 181 0.0 0.0 0.00 0.00 0.00 76 1015.9
20260506012043 68 181 0.0 0.0 0.00 0.00 0.00 75 1016.1
20260506011541 68 183 1.0 1.0 0.00 0.00 0.00 74 1016.3
20260506011036 68 181 0.0 0.0 0.00 0.00 0.00 74 1016.3
20260506010531 68 181 0.0 0.0 0.00 0.00 0.00 75 1016.1
20260506010027 68 187 1.0 1.0 0.00 0.00 0.00 76 1015.6
20260506005524 68 183 1.0 1.0 0.00 0.00 0.00 77 1015.7
20260506005020 68 182 0.0 1.0 0.00 0.00 0.00 76 1015.9
20260506004517 68 181 0.0 1.0 0.00 0.00 0.00 76 1015.9
20260506004014 68 181 0.0 0.0 0.00 0.00 0.00 76 1016.0